Wind_Speed
23 20 19 19 17 14 13 17 22 24 23 21 19 18 15 12 12 12 12 12 11 12 13 12 12 12 13 13 13 13 13 14 13 11 10 11 10 11 12 12 12 12 13 14 14 13 14 16 18
24 21 21 19 16 13 13 17 20 22 24 21 19 17 14 13 13 13 12 11 11 12 12 11 12 13 13 14 14 13 13 14 14 12 12 12 11 11 12 13 14 15 15 16 15 14 15 17 20
25 23 22 20 17 15 16 19 19 20 22 22 21 18 14 13 14 14 12 11 10 11 11 12 13 14 13 13 13 13 12 13 14 13 13 13 13 13 14 14 15 17 17 17 16 15 15 17 19
26 24 23 22 20 19 20 21 19 20 22 22 21 20 17 15 15 14 12 11 10 11 12 13 14 14 14 13 13 12 13 14 15 15 15 15 14 14 15 16 17 18 19 18 17 16 16 17 17
28 25 23 23 23 23 24 22 19 20 21 21 20 20 19 17 17 16 13 11 10 11 12 13 13 13 14 14 13 13 14 16 17 18 18 17 16 16 16 17 18 19 19 19 18 18 18 17 16
28 27 24 23 25 26 25 21 20 20 20 20 19 19 20 19 19 18 15 11 10 11 12 13 13 13 14 14 14 15 14 15 18 20 20 19 18 18 18 18 19 19 18 18 19 20 21 21 20
28 28 25 24 25 26 24 20 19 18 19 19 17 17 19 20 20 18 15 13 12 12 13 13 13 14 14 15 16 16 17 16 17 18 19 20 20 19 19 20 20 20 19 19 21 22 23 24 25
28 28 27 25 25 24 22 19 17 16 18 17 16 16 18 19 20 19 16 14 13 13 13 13 14 15 15 17 18 19 19 19 18 18 19 21 21 21 22 23 24 24 23 24 25 26 26 27 29
29 28 27 27 25 23 21 19 15 14 15 15 14 16 18 19 19 19 17 17 14 14 13 13 14 15 17 18 20 21 22 22 22 22 22 22 23 24 25 27 28 29 29 30 31 31 32 33 34
31 28 27 28 25 23 21 18 15 13 13 14 13 13 17 18 18 17 17 17 16 14 14 13 14 15 17 19 21 23 24 25 25 25 25 26 27 28 29 30 32 33 34 35 36 37 38 39 40
31 28 29 29 26 23 22 19 16 13 13 17 16 15 16 18 18 17 17 17 17 16 16 15 15 16 18 19 21 23 25 26 26 26 27 29 30 31 32 33 35 36 37 39 40 42 43 45 45
32 30 30 29 27 24 23 20 17 13 13 19 20 17 16 16 18 18 18 18 18 19 19 18 18 19 19 20 21 22 23 25 26 27 28 30 32 33 35 37 38 40 42 43 44 46 47 48 48
33 32 32 30 28 25 23 21 18 13 15 20 20 18 15 15 16 18 19 19 20 21 22 21 22 21 20 20 21 21 22 24 25 27 29 32 34 36 38 40 42 44 46 46 46 46 46 47 47
35 35 32 29 28 27 25 21 17 13 20 19 17 15 13 13 15 16 18 20 22 23 23 24 24 23 21 21 21 22 24 25 27 29 32 35 38 40 42 43 44 45 44 42 42 42 43 44 44
37 36 32 28 28 28 25 19 19 19 19 16 15 15 15 14 15 17 19 22 24 26 26 25 24 24 22 22 22 24 26 28 30 33 36 39 41 42 42 42 41 41 40 40 40 41 42 43 44
39 36 31 27 29 29 24 18 21 19 18 17 17 17 17 16 17 19 22 25 28 30 30 28 25 24 23 23 24 27 29 32 34 36 38 39 39 38 37 36 36 37 38 38 39 40 41 42 43
39 35 30 29 30 27 23 18 20 18 19 19 19 19 18 18 19 22 25 27 29 31 30 28 25 24 24 25 27 30 33 35 37 37 37 36 34 34 33 33 33 34 35 36 38 40 41 43 44
35 33 31 30 30 27 23 20 19 18 18 19 20 19 18 20 22 25 27 27 27 28 28 26 25 25 26 28 30 33 35 36 36 36 34 33 32 32 31 32 34 36 37 39 41 43 45 47 49
36 36 33 31 30 26 23 20 19 17 17 19 20 19 20 22 24 25 25 24 24 24 24 24 26 27 29 31 33 34 35 35 35 34 33 32 33 34 35 36 38 40 42 44 46 49 51 53 55
37 35 32 31 30 26 23 20 19 18 18 19 20 20 20 21 22 22 21 21 21 22 23 25 28 31 33 35 35 35 34 33 33 33 33 34 36 37 39 40 43 45 47 50 52 54 56 57 58
36 32 31 30 28 25 23 21 20 20 20 20 19 19 19 19 19 20 21 21 21 22 25 28 31 33 34 34 33 31 31 32 33 34 35 37 39 41 43 45 47 50 51 53 54 56 58 59 59
32 31 30 29 28 25 23 21 20 21 21 21 20 19 18 17 18 20 21 22 23 25 28 30 32 33 32 31 31 31 32 34 35 37 39 41 43 45 47 48 49 50 52 54 56 58 60 62 64
29 30 29 29 28 25 22 21 18 21 22 22 20 19 19 19 19 21 23 25 27 29 31 32 32 31 31 32 32 33 35 36 38 40 42 43 44 46 47 50 52 54 57 59 61 64 66 69 71
29 29 28 28 28 24 20 22 18 21 22 21 20 20 21 21 22 24 27 29 31 32 33 32 32 32 33 34 35 37 38 39 40 41 42 44 46 49 53 56 59 63 65 68 70 72 74 77 79
32 29 27 25 25 22 21 22 17 20 21 21 21 22 23 24 25 27 29 31 33 34 33 33 33 34 35 37 38 39 40 40 41 43 45 48 51 55 59 62 65 68 71 74 76 78 80 82 84
30 27 24 23 24 23 23 20 17 19 21 22 23 24 26 27 28 29 30 32 33 34 34 34 36 37 39 39 40 40 40 41 44 47 50 54 58 61 65 68 71 73 75 78 80 82 84 87 90
31 27 25 25 25 24 22 19 17 19 21 23 24 26 27 28 28 27 28 31 32 33 35 37 38 39 40 40 40 41 42 46 49 53 57 61 65 69 72 75 76 78 81 83 85 88 91 94 97
33 30 28 27 25 24 22 20 19 20 22 24 25 26 27 26 26 26 28 31 33 35 37 38 38 39 39 40 41 44 47 51 55 59 63 66 70 74 76 78 80 82 85 88 91 94 98 100 102
34 32 30 28 26 24 22 20 19 20 22 24 24 25 25 25 26 27 30 32 34 36 36 36 37 38 39 41 44 47 52 56 60 64 68 71 74 77 79 81 83 86 89 93 96 99 101 103 103
35 33 31 30 28 26 24 21 20 21 22 23 25 25 26 27 28 29 31 33 34 35 35 36 37 39 42 45 49 53 57 62 66 69 72 74 77 79 81 84 87 91 94 98 100 101 101 100 97
Wind_Direction
237 230 223 218 219 223 227 231 234 240 243 245 246 246 241 232 234 242 252 262 263 268 275 278 274 270 268 265 264 264 253 240 236 238 244 251 254 261 268 274 280 285 289 293 298 303 308 311 313
236 229 223 221 223 225 232 239 240 247 252 254 251 244 240 237 235 239 253 264 273 279 283 281 273 268 265 262 263 266 256 239 234 238 247 253 256 261 268 274 279 282 286 290 294 298 304 308 310
234 231 226 224 225 228 235 244 249 256 260 258 252 243 237 235 234 240 250 262 275 282 284 279 271 265 262 262 264 265 255 239 236 244 254 262 263 264 267 272 278 283 287 290 291 293 300 305 310
230 232 230 227 227 229 237 245 256 263 265 261 254 244 240 237 234 239 243 259 273 284 284 277 272 265 261 262 264 265 256 247 245 250 259 268 273 273 271 272 277 281 286 289 287 286 292 300 309
227 230 232 232 231 232 238 248 260 268 269 263 254 243 239 236 232 237 244 263 280 289 286 278 274 267 262 263 263 264 259 254 252 254 258 266 273 275 273 274 277 280 284 287 283 281 284 291 301
225 227 232 233 235 237 241 251 265 272 268 259 249 241 238 235 231 236 245 265 285 291 288 282 275 270 265 265 267 268 268 263 258 257 260 265 269 271 272 274 277 280 283 286 285 284 283 286 291
225 224 228 233 236 240 245 254 267 274 267 254 246 243 242 238 234 237 246 263 281 290 292 289 281 274 269 267 270 272 274 273 270 265 264 267 269 270 272 275 276 279 282 285 288 288 287 287 288
223 222 225 231 235 240 245 253 266 270 264 251 248 253 252 245 241 243 250 263 278 289 294 293 287 279 274 270 268 269 270 272 273 272 269 268 268 270 273 276 277 279 281 283 285 287 289 291 290
221 221 223 230 235 240 244 253 264 271 260 246 249 260 259 253 247 250 256 263 274 286 294 295 291 284 278 274 269 267 266 267 269 271 272 272 272 273 275 277 278 280 282 284 285 287 289 291 292
220 219 223 229 234 240 244 251 262 270 257 237 242 259 262 257 251 251 253 260 269 281 293 301 297 292 284 277 271 266 264 264 265 268 272 274 275 276 278 280 282 284 286 287 288 289 290 291 292
219 219 224 228 231 237 244 250 259 268 255 237 238 247 253 253 252 249 250 255 264 276 290 302 302 299 294 284 275 268 265 265 267 270 273 275 277 279 280 282 285 287 288 288 288 289 290 291 291
220 220 225 228 229 234 243 251 258 263 251 240 238 244 251 253 254 252 253 255 263 273 283 292 300 304 303 295 284 276 272 271 274 276 278 280 282 284 284 285 286 287 287 287 287 288 288 289 290
220 220 224 226 230 233 239 249 257 261 248 244 240 244 250 250 254 258 259 259 263 271 280 288 296 302 302 297 291 284 280 279 282 284 287 288 288 288 287 287 288 289 288 288 288 288 289 290 291
219 220 221 224 231 234 236 244 258 251 244 246 246 248 249 245 252 257 260 264 268 274 282 289 292 294 294 292 289 287 285 286 288 291 293 292 290 289 289 290 291 291 290 290 289 288 289 289 290
220 219 219 222 231 235 235 238 249 240 249 248 244 245 247 249 256 263 268 272 275 279 283 287 288 289 290 289 288 288 289 291 293 293 293 292 290 289 289 289 290 289 289 289 288 288 289 289 289
220 218 216 222 229 233 234 232 244 247 248 245 242 245 250 258 266 271 276 278 280 282 284 285 284 285 288 291 293 293 294 296 296 296 295 294 293 291 290 290 290 289 289 290 291 291 291 291 291
218 216 214 222 229 232 234 233 244 244 243 243 243 244 251 260 268 274 277 279 280 280 281 281 280 282 288 292 295 297 298 298 298 298 296 295 293 293 294 294 295 295 295 294 294 293 292 292 292
218 217 216 222 231 231 232 233 241 242 240 240 242 246 254 264 270 274 276 276 276 275 275 274 276 281 287 291 295 296 297 297 296 295 294 295 295 296 297 297 296 295 294 293 292 292 292 292 291
217 217 217 223 231 231 229 231 238 238 234 238 244 252 263 270 274 274 273 271 270 268 266 268 274 280 286 291 293 293 293 292 292 292 292 293 294 294 295 294 294 293 293 294 293 294 294 295 294
216 217 220 226 233 232 228 228 235 235 232 238 248 259 270 273 273 272 270 268 266 263 263 268 275 282 288 291 292 291 291 290 290 290 291 292 292 293 293 294 294 295 296 296 297 297 297 297 297
215 217 222 228 232 231 228 223 229 235 238 244 255 264 269 270 271 272 271 268 267 267 270 275 281 287 290 291 290 289 288 288 289 289 290 290 291 292 293 295 296 297 298 299 299 299 299 298 298
213 217 224 228 230 230 230 223 228 234 241 248 256 261 264 267 269 271 271 270 271 274 278 283 287 289 290 288 287 286 287 287 289 290 291 292 293 295 297 298 299 299 299 299 299 298 298 298 298
210 218 223 227 229 228 231 231 219 235 240 246 253 259 261 264 267 270 272 274 277 280 284 287 288 288 287 286 285 285 286 288 289 291 292 294 296 297 299 299 300 300 300 300 299 299 299 298 298
209 219 224 227 229 228 233 239 224 238 242 249 255 259 262 265 269 273 276 279 281 283 285 287 287 286 285 285 285 287 289 291 293 295 297 298 300 301 302 303 303 303 302 302 301 300 299 299 298
210 218 224 228 232 231 233 243 239 245 247 253 258 263 267 270 274 277 280 282 283 284 285 286 285 285 285 286 288 290 293 295 296 298 299 300 302 303 304 304 303 303 302 301 300 299 299 299 299
212 219 226 234 237 235 235 242 248 253 256 259 262 265 268 272 276 280 282 282 282 283 284 284 284 284 286 289 292 294 296 298 299 301 302 303 304 304 303 303 302 302 301 300 300 299 300 300 300
216 223 231 237 239 240 239 242 252 259 260 262 264 265 268 273 277 279 280 280 281 282 283 283 285 288 290 293 297 299 300 302 303 304 305 305 305 305 305 304 304 303 303 302 302 302 303 302 302
220 225 231 237 240 242 244 248 254 257 259 260 263 265 269 271 274 275 275 277 280 282 283 285 289 292 295 297 299 301 302 304 305 305 306 306 306 306 306 306 305 305 304 304 304 303 303 302 301
226 230 235 238 242 245 249 252 255 256 255 256 257 261 265 268 270 273 277 280 281 282 285 288 291 294 296 299 301 302 304 305 306 307 307 307 307 307 307 306 305 305 305 304 304 303 302 301 300
228 232 234 237 242 247 251 250 251 251 250 251 255 260 266 270 274 278 280 280 281 283 286 290 294 297 299 301 303 304 306 307 308 308 309 309 308 307 306 306 305 305 305 305 304 303 302 301 299
Height
5838 5840 5842 5844 5846 5847 5848 5848 5847 5848 5849 5851 5852 5854 5856 5858 5860 5862 5861 5860 5861 5861 5861 5861 5861 5861 5860 5860 5859 5859 5858 5859 5859 5858 5858 5858 5858 5858 5857 5857 5857 5857 5856 5855 5854 5853 5851 5850 5849
5834 5837 5840 5842 5843 5845 5846 5845 5845 5846 5847 5849 5850 5852 5854 5856 5857 5857 5858 5858 5858 5859 5859 5859 5859 5859 5859 5858 5857 5857 5857 5857 5856 5856 5856 5856 5856 5855 5856 5855 5855 5855 5854 5853 5852 5850 5849 5847 5846
5831 5834 5837 5839 5841 5842 5843 5842 5842 5844 5845 5847 5849 5850 5852 5854 5855 5855 5856 5856 5856 5857 5857 5857 5857 5857 5857 5856 5856 5855 5855 5855 5854 5854 5854 5854 5854 5853 5854 5853 5853 5852 5852 5851 5849 5847 5846 5845 5843
5828 5831 5834 5837 5838 5838 5838 5838 5840 5842 5842 5844 5846 5848 5850 5852 5853 5853 5854 5854 5855 5855 5855 5855 5855 5855 5855 5854 5854 5854 5854 5853 5853 5852 5852 5852 5852 5851 5851 5851 5850 5850 5849 5847 5846 5844 5843 5842 5840
5824 5827 5830 5832 5834 5834 5834 5835 5838 5838 5839 5841 5844 5846 5848 5850 5850 5851 5852 5853 5853 5853 5853 5853 5853 5852 5852 5852 5852 5852 5851 5851 5851 5850 5850 5849 5849 5849 5848 5848 5847 5846 5845 5844 5842 5841 5840 5839 5837
5820 5823 5827 5829 5830 5830 5831 5833 5835 5835 5836 5838 5841 5843 5846 5847 5848 5849 5850 5851 5852 5852 5851 5851 5850 5850 5849 5849 5849 5849 5849 5848 5848 5847 5847 5847 5846 5846 5845 5844 5843 5842 5841 5840 5839 5838 5837 5836 5834
5816 5819 5822 5825 5825 5827 5829 5831 5832 5833 5833 5836 5839 5841 5843 5845 5846 5847 5848 5849 5850 5850 5849 5848 5848 5847 5846 5846 5846 5846 5846 5846 5845 5844 5844 5843 5843 5842 5842 5841 5840 5839 5838 5837 5835 5834 5833 5832 5830
5811 5815 5818 5820 5821 5824 5826 5828 5829 5830 5831 5834 5837 5839 5840 5843 5845 5846 5847 5848 5847 5847 5847 5846 5845 5844 5843 5843 5843 5843 5843 5842 5842 5841 5840 5840 5839 5839 5838 5837 5836 5835 5834 5832 5831 5830 5828 5827 5825
5806 5811 5814 5816 5818 5821 5823 5824 5826 5827 5829 5832 5835 5837 5839 5841 5843 5844 5845 5846 5845 5845 5844 5843 5842 5840 5840 5839 5839 5839 5839 5839 5838 5837 5836 5836 5835 5834 5833 5832 5831 5830 5829 5827 5826 5825 5823 5821 5819
5802 5807 5810 5812 5815 5817 5819 5821 5822 5825 5827 5829 5832 5834 5836 5838 5840 5841 5843 5844 5843 5843 5842 5840 5838 5837 5836 5836 5835 5835 5834 5834 5833 5833 5832 5831 5831 5830 5829 5827 5826 5825 5824 5822 5821 5819 5817 5815 5812
5798 5803 5806 5808 5811 5813 5815 5817 5819 5821 5824 5827 5829 5831 5833 5834 5836 5838 5839 5840 5841 5840 5839 5838 5835 5834 5833 5832 5831 5830 5829 5829 5828 5828 5827 5827 5826 5825 5823 5822 5821 5819 5818 5816 5814 5811 5809 5807 5805
5794 5799 5801 5804 5806 5810 5812 5813 5815 5818 5821 5822 5825 5828 5829 5830 5832 5834 5835 5837 5837 5837 5836 5834 5832 5831 5829 5828 5827 5826 5825 5825 5824 5823 5822 5821 5820 5819 5817 5815 5814 5812 5810 5808 5806 5803 5801 5798 5796
5789 5794 5796 5799 5802 5806 5808 5810 5811 5815 5817 5818 5821 5824 5826 5827 5828 5830 5831 5833 5833 5833 5832 5831 5829 5827 5826 5824 5823 5822 5822 5821 5820 5818 5817 5816 5814 5812 5810 5808 5806 5804 5801 5799 5797 5795 5792 5790 5787
5783 5787 5791 5796 5799 5801 5804 5807 5809 5812 5812 5814 5818 5821 5822 5823 5824 5826 5827 5827 5828 5828 5828 5827 5825 5824 5822 5820 5819 5818 5818 5817 5815 5813 5811 5809 5807 5805 5802 5800 5797 5794 5792 5789 5787 5785 5782 5780 5777
5776 5782 5788 5793 5795 5796 5800 5805 5806 5807 5808 5813 5816 5817 5819 5820 5821 5821 5822 5822 5822 5823 5823 5823 5821 5819 5818 5816 5815 5814 5813 5811 5809 5807 5804 5802 5799 5796 5794 5792 5789 5786 5783 5780 5778 5775 5773 5770 5767
5770 5778 5785 5790 5790 5792 5797 5802 5801 5803 5806 5809 5812 5814 5815 5816 5817 5817 5817 5817 5817 5817 5817 5817 5817 5815 5813 5812 5810 5808 5807 5805 5803 5800 5797 5794 5791 5788 5786 5784 5781 5778 5775 5773 5769 5766 5763 5760 5757
5765 5775 5782 5784 5785 5788 5792 5797 5797 5799 5802 5805 5807 5809 5811 5812 5812 5812 5812 5812 5811 5811 5811 5811 5811 5810 5809 5807 5804 5802 5800 5798 5796 5793 5790 5787 5784 5782 5780 5777 5774 5771 5768 5765 5761 5758 5754 5751 5748
5766 5773 5777 5779 5780 5784 5788 5791 5793 5795 5798 5801 5803 5805 5806 5807 5808 5807 5807 5807 5806 5806 5805 5806 5805 5805 5803 5801 5799 5796 5794 5791 5789 5786 5783 5781 5778 5775 5773 5770 5767 5763 5760 5757 5752 5748 5744 5741 5737
5760 5766 5770 5774 5775 5780 5784 5787 5789 5791 5794 5797 5799 5801 5802 5802 5802 5802 5801 5801 5801 5800 5800 5800 5800 5799 5797 5795 5792 5790 5787 5784 5782 5779 5777 5774 5771 5768 5765 5762 5758 5754 5751 5747 5743 5738 5734 5730 5724
5753 5761 5766 5769 5772 5776 5780 5783 5785 5787 5790 5793 5795 5796 5797 5797 5796 5796 5796 5796 5796 5796 5796 5795 5795 5793 5791 5788 5785 5783 5780 5777 5775 5772 5770 5767 5764 5760 5757 5753 5749 5745 5741 5736 5731 5726 5721 5717 5710
5750 5758 5762 5765 5767 5772 5776 5780 5782 5784 5786 5789 5790 5791 5791 5791 5791 5792 5792 5792 5792 5792 5791 5790 5789 5787 5785 5782 5779 5776 5773 5770 5768 5765 5762 5759 5755 5751 5747 5743 5739 5735 5730 5725 5720 5714 5708 5703 5698
5748 5754 5756 5759 5763 5768 5772 5776 5779 5780 5782 5784 5786 5786 5786 5786 5787 5787 5788 5788 5787 5786 5785 5784 5782 5780 5778 5775 5772 5769 5766 5763 5760 5757 5754 5750 5747 5742 5738 5734 5729 5724 5719 5713 5708 5702 5695 5689 5684
5745 5747 5751 5755 5759 5764 5767 5770 5777 5776 5778 5779 5781 5781 5781 5781 5782 5783 5783 5783 5782 5780 5778 5777 5775 5773 5771 5768 5765 5762 5759 5756 5753 5750 5746 5742 5738 5733 5729 5724 5718 5713 5707 5701 5694 5688 5681 5674 5667
5738 5743 5747 5750 5754 5762 5765 5766 5773 5772 5774 5775 5776 5776 5776 5776 5776 5777 5778 5777 5775 5773 5771 5769 5768 5766 5763 5760 5758 5755 5752 5748 5745 5741 5737 5732 5728 5723 5717 5711 5705 5698 5692 5685 5678 5671 5663 5655 5648
5733 5739 5743 5747 5751 5758 5760 5762 5768 5768 5769 5770 5771 5770 5770 5770 5771 5771 5771 5770 5768 5765 5764 5762 5760 5758 5755 5753 5750 5747 5743 5740 5736 5732 5727 5723 5717 5711 5705 5698 5691 5684 5676 5669 5661 5653 5645 5636 5628
5730 5736 5741 5745 5748 5752 5755 5759 5764 5764 5764 5764 5765 5764 5764 5764 5765 5765 5764 5763 5760 5758 5757 5754 5752 5750 5747 5745 5742 5738 5734 5730 5726 5721 5716 5711 5705 5698 5691 5684 5676 5668 5660 5652 5643 5635 5626 5617 5607
5726 5731 5736 5739 5742 5747 5751 5756 5759 5758 5758 5758 5758 5758 5758 5758 5759 5759 5758 5756 5754 5752 5749 5747 5744 5742 5739 5736 5733 5729 5725 5720 5715 5709 5703 5697 5690 5682 5675 5667 5658 5650 5641 5632 5622 5613 5604 5594 5583
5722 5726 5730 5733 5737 5741 5747 5750 5753 5753 5752 5752 5752 5751 5752 5753 5753 5752 5751 5749 5747 5744 5742 5740 5737 5734 5731 5727 5723 5719 5713 5708 5703 5697 5690 5682 5674 5666 5658 5649 5640 5630 5620 5610 5601 5591 5581 5570 5559
5718 5722 5726 5730 5733 5737 5741 5747 5747 5746 5746 5746 5746 5746 5746 5747 5747 5746 5744 5742 5739 5737 5734 5732 5729 5726 5722 5718 5713 5708 5702 5696 5690 5683 5675 5667 5658 5649 5640 5631 5621 5611 5600 5590 5579 5568 5557 5545 5534
5713 5717 5722 5726 5729 5732 5736 5742 5741 5741 5740 5740 5741 5741 5742 5741 5741 5739 5737 5735 5732 5729 5727 5724 5721 5717 5712 5707 5702 5696 5690 5683 5676 5668 5660 5651 5642 5632 5622 5612 5602 5591 5579 5567 5555 5544 5531 5518 5507